Time+03,TemperatureF,Dew PointF,Humidity,Sea Level PressureIn,VisibilityMPH,Wind Direction,Wind SpeedMPH,Gust SpeedMPH,PrecipitationIn,Events,Conditions,WindDirDegrees,DateUTC
12:00 AM,75.2,62.6,65,29.80,-9999.0,NNE,4.6,-,N/A,,Clear,20,2013-03-18 21:00:00
1:00 AM,75.2,62.6,65,29.77,-9999.0,NNE,6.9,-,N/A,,Clear,20,2013-03-18 22:00:00
2:00 AM,73.4,64.4,73,29.77,-9999.0,NNE,5.8,-,N/A,,Clear,30,2013-03-18 23:00:00
3:00 AM,74,64,64,29.79,7,,4.6,,,,Scattered Clouds,,2013-03-19 00:00:00
3:00 AM,73.4,64.4,73,29.77,-9999.0,Variable,4.6,-,N/A,,Clear,0,2013-03-19 00:00:00
3:30 AM,73.4,64.4,73,29.77,-9999.0,Variable,2.3,-,N/A,,Clear,0,2013-03-19 00:30:00
4:00 AM,73.4,64.4,73,29.80,-9999.0,Variable,1.2,-,N/A,,Clear,0,2013-03-19 01:00:00
4:30 AM,73.4,64.4,73,29.80,-9999.0,East,4.6,-,N/A,,Clear,100,2013-03-19 01:30:00
5:00 AM,73.4,64.4,73,29.80,-9999.0,SE,4.6,-,N/A,,Clear,140,2013-03-19 02:00:00
5:30 AM,73.4,64.4,73,29.80,-9999.0,ESE,3.5,-,N/A,,Clear,120,2013-03-19 02:30:00
6:00 AM,71.6,64.4,78,29.83,-9999.0,ESE,4.6,-,N/A,,Partly Cloudy,120,2013-03-19 03:00:00
7:00 AM,77.0,62.6,61,29.86,6.2,NW,5.8,-,N/A,,Partly Cloudy,310,2013-03-19 04:00:00
7:30 AM,75.2,60.8,61,29.86,6.2,NNW,10.4,-,N/A,,Partly Cloudy,340,2013-03-19 04:30:00
8:00 AM,77.0,62.6,61,29.89,6.2,NNW,6.9,-,N/A,,Partly Cloudy,340,2013-03-19 05:00:00
8:30 AM,78.8,62.6,57,29.89,-9999.0,North,10.4,-,N/A,,Clear,360,2013-03-19 05:30:00
9:00 AM,80,61,42,29.91,7,North,12.7,,,,Scattered Clouds,0,2013-03-19 06:00:00
9:00 AM,80.6,60.8,51,29.89,-9999.0,North,12.7,-,N/A,,Clear,360,2013-03-19 06:00:00
9:30 AM,78.8,59.0,51,29.92,-9999.0,NNW,11.5,-,N/A,,Clear,330,2013-03-19 06:30:00
10:00 AM,80.6,59.0,48,29.92,-9999.0,North,10.4,-,N/A,,Clear,350,2013-03-19 07:00:00
10:30 AM,82.4,57.2,42,29.92,-9999.0,North,11.5,-,N/A,,Clear,360,2013-03-19 07:30:00
11:00 AM,80.6,57.2,45,29.92,-9999.0,North,10.4,-,N/A,,Clear,10,2013-03-19 08:00:00
11:30 AM,82.4,55.4,39,29.89,-9999.0,NNE,9.2,-,N/A,,Clear,20,2013-03-19 08:30:00
12:00 PM,80.6,60.8,51,29.89,-9999.0,North,15.0,-,N/A,,Clear,10,2013-03-19 09:00:00
12:30 PM,82.4,60.8,48,29.86,-9999.0,North,12.7,-,N/A,,Clear,10,2013-03-19 09:30:00
1:00 PM,80.6,62.6,54,29.86,-9999.0,North,12.7,-,N/A,,Clear,10,2013-03-19 10:00:00
1:30 PM,82.4,60.8,48,29.86,5.6,North,11.5,-,N/A,,Unknown,10,2013-03-19 10:30:00
2:00 PM,80.6,62.6,54,29.83,5.6,NNE,15.0,-,N/A,,Unknown,20,2013-03-19 11:00:00
2:30 PM,82.4,57.2,42,29.83,5.6,NNE,13.8,-,N/A,,Unknown,20,2013-03-19 11:30:00
3:00 PM,79,64,52,29.85,6,North,17.3,,,,Widespread Dust,10,2013-03-19 12:00:00
3:00 PM,78.8,64.4,61,29.83,5.6,North,17.3,-,N/A,,Unknown,10,2013-03-19 12:00:00
3:30 PM,78.8,64.4,61,29.83,5.6,North,16.1,-,N/A,,Unknown,10,2013-03-19 12:30:00
4:00 PM,78.8,64.4,61,29.83,5.6,North,16.1,-,N/A,,Unknown,10,2013-03-19 13:00:00
4:30 PM,77.0,64.4,65,29.86,5.6,North,17.3,-,N/A,,Unknown,10,2013-03-19 13:30:00
5:00 PM,77.0,62.6,61,29.86,5.6,North,16.1,-,N/A,,Unknown,10,2013-03-19 14:00:00
5:30 PM,75.2,62.6,65,29.86,5.6,North,18.4,-,N/A,,Unknown,360,2013-03-19 14:30:00
6:00 PM,75.2,60.8,61,29.86,5.6,North,16.1,-,N/A,,Unknown,360,2013-03-19 15:00:00
7:00 PM,73.4,59.0,61,29.89,5.6,North,16.1,-,N/A,,Unknown,350,2013-03-19 16:00:00
7:30 PM,73.4,60.8,65,29.89,5.6,North,13.8,-,N/A,,Unknown,360,2013-03-19 16:30:00
8:00 PM,73.4,59.0,61,29.89,5.6,North,13.8,-,N/A,,Unknown,360,2013-03-19 17:00:00
8:30 PM,71.6,59.0,64,29.89,-9999.0,North,13.8,-,N/A,,Clear,350,2013-03-19 17:30:00
9:00 PM,72,59,54,29.91,6,NNW,11.5,,,,,340,2013-03-19 18:00:00
9:00 PM,71.6,59.0,64,29.89,-9999.0,NNW,11.5,-,N/A,,Clear,340,2013-03-19 18:00:00
9:30 PM,71.6,59.0,64,29.92,-9999.0,NNW,11.5,-,N/A,,Clear,340,2013-03-19 18:30:00
10:00 PM,71.6,59.0,64,29.89,-9999.0,NNW,11.5,-,N/A,,Clear,340,2013-03-19 19:00:00
10:30 PM,69.8,57.2,64,29.89,-9999.0,NNW,12.7,-,N/A,,Clear,340,2013-03-19 19:30:00
11:00 PM,69.8,57.2,64,29.89,-9999.0,NNW,13.8,-,N/A,,Clear,330,2013-03-19 20:00:00
11:30 PM,69.8,57.2,64,29.89,-9999.0,NNW,11.5,-,N/A,,Clear,340,2013-03-19 20:30:00